Flight Information

DEPARTURE
FARMINGTON, NM
Elevation:
5506
Runways:
5/23 - 6501x150 - ASPH-E
7/25 - 6704x100 - ASPH-G
ATIS:
127.15
Ground:
121.7
Tower:
FARMINGTON TOWER 118.9
DESTINATION
,
Elevation:
TPA:
1000 (est.)


6270.9 NM79° True-13° Var66° HDG

Flight Plan:
(click to file on line)

1. Type
2. Aircraft Identification
3. Aircraft Type / Special Equipment
4. True Airspeed
kts
5. Departure Airport
(ICAO code)
6. Arriving Airport
(ICAO code)
7. Cruising Altitude
ft
8. Alternate Airport
(ICAO code)
9. Route of Flight
10. Remarks


00:00:00 Departure ATIS: Destination ATIS:

Clearance Limit:
Route:
Altitude: Expect in minutes
Frequency:
Transponder: (7500 Hijack / 7600 Lost Comms / 7700 Emergency)


KFMN 110253Z 30009KT 10SM CLR 15/M22 A2986 RMK AO2 SLP087 T01501217 53005
Time: 2021-04-11T02:53:00Z
1618111335
Winds: 300 @ 9 kts
Visibility: 10.0 sm
Clouds (AGL): CLR
Temperature: 15.0 C
Dew Point: -21.7 C
Pressure: 29.861221 in Hgbr


Notes:

Data extracted from FAA Digital Chart Supplement. Effective: 0901Z Thursday, Feb 25, 2021 to 0901Z Thursday, APR 22, 2021
Current ATIS data is provided courtisy of PilotEdge.